| time (UTC) | temp F | wind direction | speed MPH | gust MPH | rain 1hr in | rain 24hr in | rain mn in | humidity % | barometer mb |
| 20260505073627 | 56 | 0 | 0.0 | 0.0 | 0.00 | 0.00 | 0.00 | 58 | 1010.0 |
| 20260505073127 | 56 | 0 | 0.0 | 0.0 | 0.00 | 0.00 | 0.00 | 57 | 1010.0 |
| 20260505072627 | 57 | 159 | 2.0 | 3.0 | 0.00 | 0.00 | 0.00 | 55 | 1010.0 |
| 20260505072128 | 57 | 205 | 2.0 | 3.0 | 0.00 | 0.00 | 0.00 | 55 | 1010.0 |
| 20260505071627 | 58 | 149 | 0.0 | 1.0 | 0.00 | 0.00 | 0.00 | 56 | 1010.0 |
| 20260505071128 | 58 | 180 | 0.0 | 2.0 | 0.00 | 0.00 | 0.00 | 55 | 1010.0 |
| 20260505070627 | 60 | 234 | 2.0 | 3.0 | 0.00 | 0.00 | 0.00 | 52 | 1010.0 |
| 20260505070129 | 61 | 165 | 3.0 | 5.0 | 0.00 | 0.00 | 0.00 | 47 | 1010.0 |
| 20260505065627 | 61 | 95 | 2.0 | 3.0 | 0.00 | 0.00 | 0.00 | 46 | 1010.0 |
| 20260505065128 | 61 | 126 | 2.0 | 4.0 | 0.00 | 0.00 | 0.00 | 47 | 1010.0 |
| 20260505064628 | 62 | 78 | 4.0 | 7.0 | 0.00 | 0.00 | 0.00 | 46 | 1010.0 |
| 20260505064127 | 62 | 89 | 5.0 | 9.0 | 0.00 | 0.00 | 0.00 | 45 | 1010.0 |
| 20260505063627 | 62 | 90 | 4.0 | 7.0 | 0.00 | 0.00 | 0.00 | 45 | 1010.0 |
| 20260505063128 | 62 | 91 | 4.0 | 6.0 | 0.00 | 0.00 | 0.00 | 44 | 1010.0 |
| 20260505062628 | 62 | 86 | 5.0 | 8.0 | 0.00 | 0.00 | 0.00 | 45 | 1009.0 |
| 20260505062127 | 62 | 93 | 4.0 | 6.0 | 0.00 | 0.00 | 0.00 | 45 | 1009.0 |
| 20260505061627 | 62 | 90 | 5.0 | 8.0 | 0.00 | 0.00 | 0.00 | 45 | 1009.0 |
| 20260505061127 | 61 | 113 | 4.0 | 5.0 | 0.00 | 0.00 | 0.00 | 48 | 1009.0 |
| 20260505060627 | 62 | 123 | 3.0 | 4.0 | 0.00 | 0.00 | 0.00 | 47 | 1009.0 |
| 20260505060127 | 62 | 121 | 4.0 | 6.0 | 0.00 | 0.00 | 0.00 | 46 | 1009.0 |
| 20260505055627 | 63 | 103 | 4.0 | 6.0 | 0.00 | 0.00 | 0.00 | 46 | 1009.0 |
| 20260505055127 | 64 | 127 | 2.0 | 4.0 | 0.00 | 0.00 | 0.00 | 44 | 1009.0 |
| 20260505054628 | 64 | 121 | 3.0 | 4.0 | 0.00 | 0.00 | 0.00 | 44 | 1009.0 |
| 20260505054127 | 65 | 127 | 3.0 | 4.0 | 0.00 | 0.00 | 0.00 | 44 | 1009.0 |
| 20260505053627 | 65 | 131 | 2.0 | 5.0 | 0.00 | 0.00 | 0.00 | 43 | 1009.0 |
| 20260505053127 | 66 | 139 | 2.0 | 3.0 | 0.00 | 0.00 | 0.00 | 41 | 1009.0 |
| 20260505052627 | 66 | 104 | 2.0 | 4.0 | 0.00 | 0.00 | 0.00 | 41 | 1009.0 |
| 20260505052127 | 67 | 98 | 2.0 | 4.0 | 0.00 | 0.00 | 0.00 | 41 | 1009.0 |
| 20260505051627 | 67 | 99 | 4.0 | 6.0 | 0.00 | 0.00 | 0.00 | 39 | 1009.0 |
| 20260505051127 | 66 | 98 | 4.0 | 6.0 | 0.00 | 0.00 | 0.00 | 40 | 1009.0 |
| 20260505050627 | 66 | 87 | 2.0 | 5.0 | 0.00 | 0.00 | 0.00 | 40 | 1009.0 |
| 20260505050127 | 66 | 101 | 2.0 | 4.0 | 0.00 | 0.00 | 0.00 | 42 | 1009.0 |
| 20260505041627 | 63 | 78 | 1.0 | 2.0 | 0.00 | 0.00 | 0.00 | 47 | 1008.0 |
| 20260505041127 | 64 | 54 | 2.0 | 3.0 | 0.00 | 0.00 | 0.00 | 48 | 1008.0 |
| 20260505040628 | 65 | 105 | 2.0 | 3.0 | 0.00 | 0.00 | 0.00 | 51 | 1008.0 |
| 20260505040127 | 65 | 94 | 3.0 | 6.0 | 0.00 | 0.00 | 0.00 | 48 | 1008.0 |
| 20260505035628 | 66 | 112 | 2.0 | 4.0 | 0.00 | 0.00 | 0.00 | 53 | 1008.0 |
| 20260505035127 | 68 | 113 | 2.0 | 7.0 | 0.00 | 0.00 | 0.00 | 49 | 1008.0 |
| 20260505034627 | 69 | 107 | 4.0 | 6.0 | 0.00 | 0.00 | 0.00 | 42 | 1008.0 |
| 20260505034127 | 70 | 130 | 5.0 | 9.0 | 0.00 | 0.00 | 0.00 | 41 | 1007.0 |
| 20260505033628 | 71 | 94 | 3.0 | 8.0 | 0.00 | 0.00 | 0.00 | 40 | 1007.0 |
| 20260505033127 | 72 | 108 | 3.0 | 6.0 | 0.00 | 0.00 | 0.00 | 37 | 1007.0 |
| 20260505032628 | 74 | 176 | 1.0 | 2.0 | 0.00 | 0.00 | 0.00 | 36 | 1007.0 |
| 20260505032127 | 76 | 69 | 1.0 | 3.0 | 0.00 | 0.00 | 0.00 | 33 | 1007.0 |
| 20260505031627 | 76 | 47 | 4.0 | 6.0 | 0.00 | 0.00 | 0.00 | 30 | 1007.0 |
| 20260505031127 | 76 | 100 | 4.0 | 6.0 | 0.00 | 0.00 | 0.00 | 32 | 1007.0 |
| 20260505030627 | 76 | 113 | 6.0 | 9.0 | 0.00 | 0.00 | 0.00 | 31 | 1007.0 |
| 20260505030128 | 76 | 102 | 8.0 | 11.0 | 0.00 | 0.00 | 0.00 | 31 | 1007.0 |
| 20260505025628 | 76 | 89 | 9.0 | 11.0 | 0.00 | 0.00 | 0.00 | 32 | 1007.0 |
| 20260505025127 | 77 | 65 | 4.0 | 7.0 | 0.00 | 0.00 | 0.00 | 30 | 1007.0 |
| 20260505024628 | 77 | 131 | 2.0 | 3.0 | 0.00 | 0.00 | 0.00 | 35 | 1007.0 |
| 20260505024127 | 78 | 126 | 3.0 | 4.0 | 0.00 | 0.00 | 0.00 | 32 | 1007.0 |
| 20260505023627 | 78 | 111 | 3.0 | 5.0 | 0.00 | 0.00 | 0.00 | 31 | 1007.0 |
| 20260505023127 | 79 | 115 | 4.0 | 6.0 | 0.00 | 0.00 | 0.00 | 30 | 1007.0 |
| 20260505022627 | 79 | 117 | 6.0 | 9.0 | 0.00 | 0.00 | 0.00 | 29 | 1007.0 |
| 20260505022127 | 79 | 101 | 4.0 | 5.0 | 0.00 | 0.00 | 0.00 | 31 | 1007.0 |
| 20260505021626 | 80 | 101 | 4.0 | 6.0 | 0.00 | 0.00 | 0.00 | 31 | 1007.0 |
| 20260505021131 | 80 | 103 | 7.0 | 9.0 | 0.00 | 0.00 | 0.00 | 29 | 1007.0 |
| 20260505020627 | 80 | 130 | 6.0 | 8.0 | 0.00 | 0.00 | 0.00 | 32 | 1007.0 |
| 20260505020127 | 80 | 149 | 2.0 | 3.0 | 0.00 | 0.00 | 0.00 | 32 | 1007.0 |
| 20260505015627 | 80 | 162 | 2.0 | 3.0 | 0.00 | 0.00 | 0.00 | 33 | 1007.0 |
| 20260505015127 | 80 | 150 | 3.0 | 4.0 | 0.00 | 0.00 | 0.00 | 32 | 1007.0 |
| 20260505014629 | 80 | 158 | 3.0 | 4.0 | 0.00 | 0.00 | 0.00 | 33 | 1007.0 |
| 20260505014127 | 80 | 134 | 3.0 | 4.0 | 0.00 | 0.00 | 0.00 | 33 | 1007.0 |
| 20260505013627 | 80 | 111 | 3.0 | 5.0 | 0.00 | 0.00 | 0.00 | 33 | 1007.0 |
| 20260505013127 | 81 | 122 | 3.0 | 3.0 | 0.00 | 0.00 | 0.00 | 33 | 1007.0 |
| 20260505012627 | 81 | 152 | 3.0 | 5.0 | 0.00 | 0.00 | 0.00 | 31 | 1007.0 |
| 20260505012127 | 80 | 164 | 2.0 | 4.0 | 0.00 | 0.00 | 0.00 | 32 | 1007.0 |
| 20260505011627 | 80 | 104 | 4.0 | 6.0 | 0.00 | 0.00 | 0.00 | 32 | 1007.0 |
| 20260505011127 | 80 | 139 | 2.0 | 3.0 | 0.00 | 0.00 | 0.00 | 30 | 1007.0 |
| 20260505010627 | 81 | 96 | 4.0 | 6.0 | 0.00 | 0.00 | 0.00 | 30 | 1007.0 |
| 20260505010127 | 81 | 132 | 3.0 | 4.0 | 0.00 | 0.00 | 0.00 | 31 | 1007.0 |
| 20260505005627 | 80 | 122 | 2.0 | 4.0 | 0.00 | 0.00 | 0.00 | 30 | 1007.0 |
| 20260505005128 | 80 | 79 | 5.0 | 6.0 | 0.00 | 0.00 | 0.00 | 31 | 1007.0 |
| 20260505004628 | 80 | 109 | 2.0 | 3.0 | 0.00 | 0.00 | 0.00 | 32 | 1007.0 |
| 20260505004127 | 80 | 130 | 5.0 | 9.0 | 0.00 | 0.00 | 0.00 | 30 | 1007.0 |
| 20260505003627 | 80 | 129 | 5.0 | 7.0 | 0.00 | 0.00 | 0.00 | 31 | 1007.0 |
| 20260505003127 | 80 | 115 | 4.0 | 5.0 | 0.00 | 0.00 | 0.00 | 33 | 1007.0 |
| 20260505002628 | 80 | 102 | 4.0 | 6.0 | 0.00 | 0.00 | 0.00 | 32 | 1007.0 |
| 20260505002128 | 80 | 114 | 5.0 | 7.0 | 0.00 | 0.00 | 0.00 | 32 | 1007.0 |
| 20260505001627 | 80 | 126 | 6.0 | 9.0 | 0.00 | 0.00 | 0.00 | 32 | 1007.0 |
| 20260505001127 | 80 | 106 | 6.0 | 9.0 | 0.00 | 0.00 | 0.00 | 31 | 1007.0 |
| 20260505000628 | 80 | 105 | 7.0 | 11.0 | 0.00 | 0.00 | 0.00 | 32 | 1007.0 |
| 20260505000127 | 79 | 135 | 3.0 | 6.0 | 0.00 | 0.00 | 0.00 | 34 | 1007.0 |
| 20260504235627 | 79 | 117 | 3.0 | 6.0 | 0.00 | 0.00 | 0.00 | 33 | 1007.0 |
| 20260504235128 | 79 | 120 | 4.0 | 7.0 | 0.00 | 0.00 | 0.00 | 33 | 1007.0 |
| 20260504234627 | 79 | 121 | 4.0 | 8.0 | 0.00 | 0.00 | 0.00 | 34 | 1007.0 |
| 20260504234127 | 80 | 124 | 5.0 | 6.0 | 0.00 | 0.00 | 0.00 | 33 | 1007.0 |
| 20260504233628 | 79 | 99 | 5.0 | 10.0 | 0.00 | 0.00 | 0.00 | 33 | 1007.0 |
| 20260504233127 | 79 | 102 | 5.0 | 7.0 | 0.00 | 0.00 | 0.00 | 33 | 1007.0 |
| 20260504232627 | 80 | 112 | 4.0 | 5.0 | 0.00 | 0.00 | 0.00 | 31 | 1007.0 |
| 20260504232127 | 79 | 110 | 5.0 | 8.0 | 0.00 | 0.00 | 0.00 | 33 | 1007.0 |
| 20260504231627 | 78 | 105 | 4.0 | 6.0 | 0.00 | 0.00 | 0.00 | 34 | 1007.0 |
| 20260504231127 | 78 | 102 | 6.0 | 11.0 | 0.00 | 0.00 | 0.00 | 33 | 1007.0 |
| 20260504230628 | 78 | 111 | 5.0 | 8.0 | 0.00 | 0.00 | 0.00 | 35 | 1007.0 |
| 20260504230128 | 79 | 104 | 5.0 | 6.0 | 0.00 | 0.00 | 0.00 | 34 | 1008.0 |
| 20260504225632 | 80 | 46 | 4.0 | 6.0 | 0.00 | 0.00 | 0.00 | 31 | 1008.0 |
| 20260504225128 | 80 | 285 | 0.0 | 2.0 | 0.00 | 0.00 | 0.00 | 32 | 1008.0 |
| 20260504224627 | 80 | 291 | 4.0 | 7.0 | 0.00 | 0.00 | 0.00 | 31 | 1008.0 |
| 20260504224127 | 80 | 296 | 4.0 | 8.0 | 0.00 | 0.00 | 0.00 | 32 | 1008.0 |
| 20260504223629 | 80 | 278 | 4.0 | 7.0 | 0.00 | 0.00 | 0.00 | 28 | 1008.0 |
| 20260504223129 | 81 | 294 | 2.0 | 4.0 | 0.00 | 0.00 | 0.00 | 30 | 1008.0 |
| 20260504222627 | 81 | 230 | 3.0 | 5.0 | 0.00 | 0.00 | 0.00 | 30 | 1008.0 |
| 20260504222127 | 81 | 274 | 4.0 | 7.0 | 0.00 | 0.00 | 0.00 | 30 | 1008.0 |
| 20260504221627 | 81 | 280 | 4.0 | 8.0 | 0.00 | 0.00 | 0.00 | 31 | 1008.0 |
| 20260504221128 | 82 | 261 | 5.0 | 8.0 | 0.00 | 0.00 | 0.00 | 31 | 1008.0 |
| 20260504220627 | 82 | 280 | 5.0 | 7.0 | 0.00 | 0.00 | 0.00 | 31 | 1008.0 |
| 20260504220127 | 81 | 261 | 2.0 | 4.0 | 0.00 | 0.00 | 0.00 | 30 | 1008.0 |
| 20260504215627 | 81 | 290 | 6.0 | 8.0 | 0.00 | 0.00 | 0.00 | 31 | 1008.0 |
| 20260504215127 | 81 | 267 | 3.0 | 5.0 | 0.00 | 0.00 | 0.00 | 31 | 1008.0 |
| 20260504214627 | 81 | 236 | 3.0 | 5.0 | 0.00 | 0.00 | 0.00 | 31 | 1008.0 |
| 20260504214127 | 81 | 268 | 6.0 | 10.0 | 0.00 | 0.00 | 0.00 | 31 | 1008.0 |
| 20260504213627 | 81 | 270 | 5.0 | 9.0 | 0.00 | 0.00 | 0.00 | 31 | 1008.0 |
| 20260504213127 | 81 | 266 | 5.0 | 7.0 | 0.00 | 0.00 | 0.00 | 31 | 1008.0 |
| 20260504212627 | 80 | 257 | 4.0 | 6.0 | 0.00 | 0.00 | 0.00 | 32 | 1008.0 |
| 20260504212127 | 80 | 269 | 5.0 | 11.0 | 0.00 | 0.00 | 0.00 | 32 | 1008.0 |
| 20260504211628 | 79 | 260 | 4.0 | 8.0 | 0.00 | 0.00 | 0.00 | 32 | 1008.0 |
| 20260504211128 | 79 | 239 | 5.0 | 8.0 | 0.00 | 0.00 | 0.00 | 32 | 1008.0 |
| 20260504210627 | 79 | 265 | 3.0 | 6.0 | 0.00 | 0.00 | 0.00 | 33 | 1008.0 |
| 20260504210128 | 79 | 255 | 6.0 | 9.0 | 0.00 | 0.00 | 0.00 | 31 | 1008.0 |
| 20260504205627 | 78 | 268 | 4.0 | 8.0 | 0.00 | 0.00 | 0.00 | 34 | 1008.0 |
| 20260504205128 | 78 | 270 | 5.0 | 7.0 | 0.00 | 0.00 | 0.00 | 33 | 1008.0 |
| 20260504204627 | 79 | 265 | 6.0 | 9.0 | 0.00 | 0.00 | 0.00 | 33 | 1008.0 |
| 20260504204129 | 79 | 264 | 6.0 | 9.0 | 0.00 | 0.00 | 0.00 | 33 | 1008.0 |
| 20260504203628 | 78 | 279 | 5.0 | 9.0 | 0.00 | 0.00 | 0.00 | 35 | 1008.0 |
| 20260504203127 | 78 | 248 | 5.0 | 9.0 | 0.00 | 0.00 | 0.00 | 33 | 1008.0 |
| 20260504202627 | 77 | 268 | 6.0 | 10.0 | 0.00 | 0.00 | 0.00 | 33 | 1008.0 |
| 20260504202127 | 78 | 264 | 6.0 | 9.0 | 0.00 | 0.00 | 0.00 | 33 | 1008.0 |
| 20260504201627 | 78 | 264 | 3.0 | 7.0 | 0.00 | 0.00 | 0.00 | 34 | 1008.0 |
| 20260504201127 | 78 | 271 | 5.0 | 10.0 | 0.00 | 0.00 | 0.00 | 34 | 1008.0 |
| 20260504200627 | 77 | 258 | 5.0 | 8.0 | 0.00 | 0.00 | 0.00 | 35 | 1008.0 |
| 20260504200127 | 76 | 271 | 3.0 | 5.0 | 0.00 | 0.00 | 0.00 | 35 | 1009.0 |
| 20260504195627 | 77 | 259 | 5.0 | 8.0 | 0.00 | 0.00 | 0.00 | 34 | 1009.0 |
| 20260504195127 | 77 | 270 | 4.0 | 8.0 | 0.00 | 0.00 | 0.00 | 34 | 1008.0 |
| 20260504194627 | 77 | 268 | 5.0 | 10.0 | 0.00 | 0.00 | 0.00 | 34 | 1009.0 |
| 20260504194127 | 77 | 275 | 5.0 | 8.0 | 0.00 | 0.00 | 0.00 | 34 | 1009.0 |
| 20260504193628 | 77 | 254 | 4.0 | 6.0 | 0.00 | 0.00 | 0.00 | 35 | 1009.0 |
| 20260504193127 | 77 | 276 | 8.0 | 13.0 | 0.00 | 0.00 | 0.00 | 34 | 1009.0 |
| 20260504192627 | 77 | 255 | 4.0 | 9.0 | 0.00 | 0.00 | 0.00 | 35 | 1009.0 |
| 20260504192128 | 77 | 266 | 5.0 | 8.0 | 0.00 | 0.00 | 0.00 | 36 | 1009.0 |
| 20260504191627 | 77 | 251 | 5.0 | 10.0 | 0.00 | 0.00 | 0.00 | 35 | 1009.0 |
| 20260504191127 | 77 | 271 | 5.0 | 7.0 | 0.00 | 0.00 | 0.00 | 36 | 1009.0 |
| 20260504190627 | 77 | 282 | 5.0 | 7.0 | 0.00 | 0.00 | 0.00 | 37 | 1009.0 |
| 20260504190128 | 76 | 278 | 6.0 | 9.0 | 0.00 | 0.00 | 0.00 | 36 | 1009.0 |
| 20260504185628 | 76 | 260 | 3.0 | 4.0 | 0.00 | 0.00 | 0.00 | 36 | 1009.0 |
| 20260504185127 | 76 | 254 | 5.0 | 8.0 | 0.00 | 0.00 | 0.00 | 37 | 1009.0 |
| 20260504184627 | 76 | 263 | 4.0 | 6.0 | 0.00 | 0.00 | 0.00 | 37 | 1009.0 |
| 20260504184127 | 75 | 286 | 6.0 | 10.0 | 0.00 | 0.00 | 0.00 | 37 | 1009.0 |
| 20260504183627 | 75 | 281 | 6.0 | 8.0 | 0.00 | 0.00 | 0.00 | 37 | 1009.0 |
| 20260504183127 | 74 | 285 | 4.0 | 6.0 | 0.00 | 0.00 | 0.00 | 37 | 1009.0 |
| 20260504182628 | 74 | 254 | 5.0 | 7.0 | 0.00 | 0.00 | 0.00 | 38 | 1009.0 |
| 20260504182127 | 74 | 272 | 4.0 | 6.0 | 0.00 | 0.00 | 0.00 | 38 | 1010.0 |
| 20260504181627 | 74 | 276 | 5.0 | 9.0 | 0.00 | 0.00 | 0.00 | 39 | 1010.0 |
| 20260504181127 | 73 | 278 | 4.0 | 7.0 | 0.00 | 0.00 | 0.00 | 39 | 1010.0 |
| 20260504180628 | 73 | 274 | 6.0 | 8.0 | 0.00 | 0.00 | 0.00 | 39 | 1010.0 |
| 20260504180128 | 73 | 268 | 6.0 | 8.0 | 0.00 | 0.00 | 0.00 | 41 | 1010.0 |
| 20260504175627 | 72 | 250 | 5.0 | 7.0 | 0.00 | 0.00 | 0.00 | 41 | 1010.0 |
| 20260504175127 | 72 | 250 | 5.0 | 9.0 | 0.00 | 0.00 | 0.00 | 41 | 1010.0 |
| 20260504174627 | 71 | 249 | 5.0 | 7.0 | 0.00 | 0.00 | 0.00 | 42 | 1010.0 |
| 20260504174127 | 71 | 262 | 4.0 | 6.0 | 0.00 | 0.00 | 0.00 | 42 | 1010.0 |
| 20260504173628 | 71 | 252 | 4.0 | 6.0 | 0.00 | 0.00 | 0.00 | 41 | 1010.0 |
| 20260504173127 | 70 | 262 | 6.0 | 9.0 | 0.00 | 0.00 | 0.00 | 41 | 1010.0 |
| 20260504172628 | 70 | 265 | 6.0 | 8.0 | 0.00 | 0.00 | 0.00 | 43 | 1010.0 |
| 20260504172127 | 69 | 278 | 5.0 | 9.0 | 0.00 | 0.00 | 0.00 | 44 | 1010.0 |
| 20260504171627 | 69 | 273 | 6.0 | 9.0 | 0.00 | 0.00 | 0.00 | 44 | 1010.0 |
| 20260504171128 | 68 | 279 | 7.0 | 12.0 | 0.00 | 0.00 | 0.00 | 43 | 1010.0 |
| 20260504170627 | 68 | 284 | 7.0 | 11.0 | 0.00 | 0.00 | 0.00 | 44 | 1010.0 |
| 20260504170127 | 68 | 280 | 7.0 | 11.0 | 0.00 | 0.00 | 0.00 | 43 | 1010.0 |
| 20260504160127 | 62 | 287 | 7.0 | 10.0 | 0.00 | 0.00 | 0.00 | 54 | 1011.0 |
| 20260504151127 | 60 | 293 | 2.0 | 3.0 | 0.00 | 0.00 | 0.00 | 52 | 1011.0 |
| 20260504150628 | 60 | 292 | 2.0 | 4.0 | 0.00 | 0.00 | 0.00 | 52 | 1011.0 |
| 20260504150128 | 59 | 279 | 2.0 | 4.0 | 0.00 | 0.00 | 0.00 | 51 | 1011.0 |
| 20260504141128 | 51 | 142 | 2.0 | 3.0 | 0.00 | 0.00 | 0.00 | 67 | 1011.0 |
| 20260504140628 | 50 | 170 | 0.0 | 1.0 | 0.00 | 0.00 | 0.00 | 68 | 1011.0 |
| 20260504140127 | 48 | 133 | 0.0 | 0.0 | 0.00 | 0.00 | 0.00 | 71 | 1011.0 |
| 20260504130628 | 42 | 128 | 2.0 | 2.0 | 0.00 | 0.00 | 0.00 | 82 | 1011.0 |
| 20260504130128 | 42 | 123 | 1.0 | 1.0 | 0.00 | 0.00 | 0.00 | 80 | 1011.0 |
| 20260504120128 | 44 | 172 | 0.0 | 1.0 | 0.00 | 0.00 | 0.00 | 77 | 1010.0 |
| 20260504110630 | 44 | 175 | 0.0 | 1.0 | 0.00 | 0.00 | 0.00 | 79 | 1010.0 |
| 20260504110127 | 44 | 199 | 0.0 | 1.0 | 0.00 | 0.00 | 0.00 | 78 | 1010.0 |
| 20260504100127 | 45 | 0 | 0.0 | 0.0 | 0.00 | 0.00 | 0.00 | 72 | 1010.0 |
| 20260504090128 | 46 | 163 | 1.0 | 1.0 | 0.00 | 0.00 | 0.00 | 71 | 1010.0 |
| 20260504081627 | 48 | 0 | 0.0 | 0.0 | 0.00 | 0.00 | 0.00 | 69 | 1010.0 |
| 20260504081127 | 49 | 0 | 0.0 | 0.0 | 0.00 | 0.00 | 0.00 | 69 | 1010.0 |
| 20260504080627 | 49 | 0 | 0.0 | 0.0 | 0.00 | 0.00 | 0.00 | 69 | 1010.0 |
| 20260504080128 | 49 | 254 | 0.0 | 0.0 | 0.00 | 0.00 | 0.00 | 69 | 1010.0 |